Flag for Canada Weather past 2 weeks in Regina, Saskatchewan, Canada

Now
63 °F

Partly sunny.


Feels Like: 63 °F
Forecast: 54 / 65 °F
Wind: 14 mph from Northeast

Location: Regina Weather Station

Current Time: Aug 21, 2014 at 8:26:18 PM

Latest Report: Aug 21, 2014 at 8:00 PM


Visibility: 15 mi

Pressure: 30.08 "Hg

Humidity: 73%

Dew point: 54 °F

Location of ReginaLocation

Historic Weather in Regina — Graph

°F

Regina temperature yesterday

Maximum temperature yesterday: 73 °F (at 4:00 PM)
Minimum temperature yesterday: 59 °F (at 6:00 AM)
Average temperature yesterday: 67 °F

Past Weeks' High & Low Weather Summary

 TemperatureHumidityPressure
High88 °F (Aug 14, 4:00 PM)100% (Aug 7, 1:00 AM)30.29 "Hg (Aug 7, 1:00 AM)
Low50 °F (Aug 10, 6:00 AM)43% (Aug 19, 2:00 PM)29.58 "Hg (Aug 20, 4:00 AM)
Average68 °F79%29.94 "Hg
* Reported Aug 6 7:00 PM — Aug 21 7:00 PM, Regina, Weather by CustomWeather, © 2014

Note: Actual official high and low records may vary slightly from our data, if they occured in-between our weather recording intervals... More about our weather records

Advertising

Regina weather history for previous 24 hours

 ConditionsComfort  
Time TempWeatherWind HumidityBarometerVisibility
7:00 PM
Aug 21
64 °FCloudy.10 mph73%30.07 "Hg15 mi
6:00 PM64 °FPartly sunny.13 mph73%30.05 "Hg15 mi
5:00 PM66 °FPartly sunny.15 mph68%30.04 "Hg15 mi
4:00 PM66 °FBroken clouds.14 mph73%30.03 "Hg15 mi
3:00 PM64 °FBroken clouds.14 mph73%30.03 "Hg15 mi
2:00 PM64 °FMostly cloudy.17 mph73%30.02 "Hg15 mi
1:00 PM66 °FPartly sunny.16 mph73%30.00 "Hg15 mi
12:00 PM68 °FPartly sunny.14 mph69%29.99 "Hg15 mi
11:00 AM66 °FPartly sunny.12 mph73%29.99 "Hg15 mi
10:00 AM61 °FBroken clouds.13 mph83%29.98 "Hg15 mi
9:00 AM61 °FPartly sunny.15 mph83%29.97 "Hg15 mi
8:00 AM59 °FPartly sunny.12 mph88%29.96 "Hg15 mi
7:00 AM59 °FLow clouds.15 mph94%29.94 "Hg15 mi
6:00 AM61 °FLow clouds.12 mph94%29.91 "Hg12 mi
5:00 AM61 °FLow clouds.9 mph94%29.88 "Hg10 mi
4:00 AM61 °FFog.13 mph100%29.86 "Hg6 mi
3:00 AM61 °FLow clouds.10 mph100%29.85 "Hg15 mi
2:00 AM59 °FPassing clouds.8 mph100%29.85 "Hg15 mi
1:00 AM59 °FPassing clouds.6 mph100%29.84 "Hg15 mi
12:00 AM59 °FPassing clouds.8 mph94%29.83 "Hg15 mi
11:00 PM
Aug 20
61 °FPassing clouds.8 mph94%29.83 "Hg15 mi
10:00 PM66 °FPassing clouds.6 mph83%29.80 "Hg15 mi
9:00 PM68 °FPassing clouds.6 mph83%29.80 "Hg15 mi
8:00 PM70 °FPartly sunny.6 mph73%29.77 "Hg15 mi
Weather by CustomWeather, © 2014

See weather overviewHow to use our weather pages